Torna al catalogo

STARLINK-1983

AttivoComunicazioniVLEO
NORAD 47630·PAYLOAD·🇺🇸 United States

Lanciato Feb 16, 2021 da Cape Canaveral Space Force Station

Loading…

Prossimi Passaggi (prossime 24 ore)

TLE

AggiornatoSource: CelesTrak SupGP

Epoca: Sep 14, 2026, 22:00 UTC

1 47630C 21012L   26257.91715278  .00040426  00000+0  12087-2 0  2570
2 47630  53.1569 248.6515 0004016  62.9172  52.7832 15.33988629    12

Traccia STARLINK-1983 in tempo reale con AllMySat

Download on the App Store